FW3031 Weather Reports


time (UTC)temp
F
wind
direction
speed
knots
gust
knots
rain 1hr
in
rain 24hr
in
rain mn
in
humidity
%
barometer
mb
20260904172058 84 190 0.9 6.1 0.00 0.00 0.00 64 1014.1
20260904171604 84 190 0.0 5.2 0.00 0.00 0.00 63 1014.1
20260904171057 84 190 2.6 5.2 0.00 0.00 0.00 63 1014.2
20260904170557 84 190 0.0 3.5 0.00 0.00 0.00 63 1014.2
20260904170122 84 190 0.9 4.3 0.00 0.00 0.00 61 1012.7
20260904170058 84 190 0.9 4.3 0.00 0.00 0.00 62 1014.2
20260904165557 84 190 2.6 4.3 0.00 0.00 0.00 62 1014.2
20260904165057 84 190 0.0 4.3 0.00 0.00 0.00 62 1014.3
20260904164608 84 190 0.9 4.3 0.00 0.00 0.00 61 1012.8
20260904164556 84 190 1.7 4.3 0.00 0.00 0.00 62 1014.3
20260904164054 83 190 0.0 2.6 0.00 0.00 0.00 64 1014.4
20260904163552 83 190 0.0 3.5 0.00 0.00 0.00 65 1014.5
20260904163112 82 190 1.7 3.5 0.00 0.00 0.00 64 1013.1
20260904163055 82 190 1.7 3.5 0.00 0.00 0.00 65 1014.5
20260904162551 82 190 0.9 3.5 0.00 0.00 0.00 66 1014.6
20260904162048 81 190 0.9 3.5 0.00 0.00 0.00 68 1014.7
20260904161612 81 0 0.9 4.3 0.00 0.00 0.00 66 1013.3
20260904161601 80 190 0.9 4.3 0.00 0.00 0.00 67 1014.8
20260904161050 80 190 1.7 4.3 0.00 0.00 0.00 67 1014.9
20260904160549 81 190 1.7 4.3 0.00 0.00 0.00 67 1014.9
20260904160104 81 190 0.9 3.5 0.00 0.00 0.00 66 1013.5
20260904160048 81 190 0.0 3.5 0.00 0.00 0.00 67 1015.0
20260904155549 81 190 0.0 3.5 0.00 0.00 0.00 67 1015.0
20260904155046 80 190 0.0 3.5 0.00 0.00 0.00 68 1015.1
20260904154601 80 0 0.9 2.6 0.00 0.00 0.00 68 1013.7
20260904154545 80 190 0.0 2.6 0.00 0.00 0.00 69 1015.2
20260904154044 80 190 0.0 0.0 0.00 0.00 0.00 70 1015.1
20260904153543 79 190 0.0 2.6 0.00 0.00 0.00 69 1015.2
20260904153108 79 0 0.0 2.6 0.00 0.00 0.00 69 1013.7
20260904153042 79 190 0.0 2.6 0.00 0.00 0.00 70 1015.2
20260904152540 79 190 0.0 1.7 0.00 0.00 0.00 69 1015.2
20260904152039 78 190 0.0 0.0 0.00 0.00 0.00 72 1015.2
20260904151606 78 0 0.0 2.6 0.00 0.00 0.00 72 1013.7
20260904151538 78 190 0.0 2.6 0.00 0.00 0.00 72 1015.2
20260904151037 77 190 0.9 2.6 0.00 0.00 0.00 72 1015.2
20260904150536 77 190 0.0 1.7 0.00 0.00 0.00 73 1015.2
20260904150037 77 190 0.0 0.9 0.00 0.00 0.00 73 1015.2
20260904145533 76 190 0.0 1.7 0.00 0.00 0.00 75 1015.2
20260904145032 76 190 0.0 1.7 0.00 0.00 0.00 77 1015.2
20260904144613 76 0 0.0 0.9 0.00 0.00 0.00 77 1013.7
20260904144530 76 190 0.0 0.9 0.00 0.00 0.00 77 1015.3
20260904144029 75 190 0.0 0.0 0.00 0.00 0.00 80 1015.2
20260904143528 75 190 0.0 0.0 0.00 0.00 0.00 79 1015.3
20260904143118 74 190 0.0 1.7 0.00 0.00 0.00 80 1013.6
20260904143027 74 190 0.0 1.7 0.00 0.00 0.00 81 1015.1
20260904142525 74 190 0.0 1.7 0.00 0.00 0.00 82 1015.2
20260904142024 74 190 0.0 1.7 0.00 0.00 0.00 82 1015.2
20260904141606 73 0 0.0 0.0 0.00 0.00 0.00 83 1013.4
20260904141524 73 190 0.0 0.0 0.00 0.00 0.00 84 1015.1
20260904141022 73 190 0.0 0.0 0.00 0.00 0.00 86 1015.1
20260904140522 72 190 0.0 0.9 0.00 0.00 0.00 87 1015.1
20260904140109 72 0 0.0 0.9 0.00 0.00 0.00 87 1013.3
20260904140022 72 190 0.0 0.9 0.00 0.00 0.00 87 1015.0
20260904135521 71 190 0.0 0.0 0.00 0.00 0.00 88 1014.9
20260904135021 71 190 0.0 0.0 0.00 0.00 0.00 87 1014.9
20260904134607 71 0 0.0 0.0 0.00 0.00 0.00 88 1013.2
20260904134520 71 190 0.0 0.0 0.00 0.00 0.00 88 1014.9
20260904134019 70 190 0.0 0.0 0.00 0.00 0.00 90 1014.7
20260904133519 70 190 0.0 0.0 0.00 0.00 0.00 90 1014.7
20260904133113 70 0 0.0 1.7 0.00 0.00 0.00 90 1012.9
20260904133019 70 190 0.0 1.7 0.00 0.00 0.00 91 1014.6
20260904132518 69 190 0.0 1.7 0.00 0.00 0.00 91 1014.5
20260904132018 69 190 0.0 0.0 0.00 0.00 0.00 92 1014.5
20260904131606 69 0 0.0 0.0 0.00 0.00 0.00 92 1012.7
20260904131518 69 190 0.0 0.0 0.00 0.00 0.00 93 1014.4
20260904131016 68 190 0.0 0.0 0.00 0.00 0.00 93 1014.3
20260904130516 68 190 0.0 0.9 0.00 0.00 0.00 93 1014.3
20260904130104 69 0 0.0 0.9 0.00 0.00 0.00 92 1012.6
20260904130018 68 190 0.0 0.9 0.00 0.00 0.00 93 1014.3
20260904125516 68 190 0.0 0.9 0.00 0.00 0.00 93 1014.3
20260904125018 68 190 0.0 0.0 0.00 0.00 0.00 93 1014.3
20260904124609 68 0 0.0 0.0 0.00 0.00 0.00 93 1012.5
20260904124523 68 190 0.0 0.0 0.00 0.00 0.00 93 1014.2
20260904124014 68 190 0.0 0.0 0.00 0.00 0.00 93 1014.1
20260904123519 68 190 0.0 0.0 0.00 0.00 0.00 93 1014.1
20260904123104 68 0 0.0 1.7 0.00 0.00 0.00 93 1012.4
20260904123014 68 190 0.0 1.7 0.00 0.00 0.00 93 1014.0
20260904122514 68 190 0.0 1.7 0.00 0.00 0.00 93 1013.9
20260904122014 68 190 0.0 1.7 0.00 0.00 0.00 93 1013.9
20260904121606 68 0 0.0 2.6 0.00 0.00 0.00 93 1012.2
20260904121514 68 190 0.0 1.7 0.00 0.00 0.00 93 1013.8
20260904121015 68 190 0.0 2.6 0.00 0.00 0.00 93 1013.9
20260904120512 69 190 0.0 0.9 0.00 0.00 0.00 93 1013.9
20260904120109 69 0 0.0 0.9 0.00 0.00 0.00 92 1012.1
20260904120016 69 190 0.0 0.0 0.00 0.00 0.00 92 1013.7
20260904115510 69 190 0.0 1.7 0.00 0.00 0.00 92 1013.7
20260904115010 69 190 0.0 1.7 0.00 0.00 0.00 92 1013.7
20260904114605 69 0 0.0 0.0 0.00 0.00 0.00 91 1012.0
20260904114509 69 190 0.0 0.0 0.00 0.00 0.00 92 1013.7
20260904114009 69 190 0.0 0.0 0.00 0.00 0.00 91 1013.7
20260904113509 69 190 0.0 0.0 0.00 0.00 0.00 91 1013.7
20260904113103 69 0 0.0 0.0 0.00 0.00 0.00 91 1012.1
20260904113008 69 190 0.0 0.0 0.00 0.00 0.00 91 1013.8
20260904112507 69 190 0.0 0.0 0.00 0.00 0.00 91 1013.8
20260904112007 69 190 0.0 0.0 0.00 0.00 0.00 91 1013.7
20260904111609 70 0 0.0 0.0 0.00 0.00 0.00 91 1012.2
20260904111506 70 190 0.0 0.0 0.00 0.00 0.00 91 1013.8
20260904111006 70 190 0.0 0.0 0.00 0.00 0.00 91 1013.7
20260904110506 70 190 0.0 0.0 0.00 0.00 0.00 91 1013.7
20260904110108 70 0 0.0 0.0 0.00 0.00 0.00 91 1012.1
20260904110006 70 190 0.0 0.0 0.00 0.00 0.00 92 1013.7
20260904105505 70 190 0.0 0.0 0.00 0.00 0.00 91 1013.8
20260904105005 70 190 0.0 0.0 0.00 0.00 0.00 91 1013.9
20260904104612 70 0 0.0 0.0 0.00 0.00 0.00 91 1012.2
20260904104505 70 190 0.0 0.0 0.00 0.00 0.00 91 1014.0
20260904104005 70 190 0.0 0.0 0.00 0.00 0.00 91 1013.9
20260904103505 70 190 0.0 0.0 0.00 0.00 0.00 91 1013.9
20260904103110 70 0 0.0 0.0 0.00 0.00 0.00 91 1012.1
20260904103004 70 190 0.0 0.0 0.00 0.00 0.00 91 1013.8
20260904102504 70 190 0.0 0.0 0.00 0.00 0.00 91 1013.7
20260904102004 70 190 0.0 0.0 0.00 0.00 0.00 91 1013.9
20260904101604 70 0 0.0 0.0 0.00 0.00 0.00 91 1012.2
20260904101509 70 190 0.0 0.0 0.00 0.00 0.00 91 1013.9
20260904101003 70 190 0.0 0.0 0.00 0.00 0.00 92 1013.9
20260904100503 70 190 0.0 0.0 0.00 0.00 0.00 91 1013.9
20260904100126 70 0 0.0 0.0 0.00 0.00 0.00 91 1012.2
20260904100005 70 190 0.0 0.0 0.00 0.00 0.00 92 1013.9
20260904095504 70 190 0.0 1.7 0.00 0.00 0.00 91 1014.0
20260904095000 70 190 0.9 1.7 0.00 0.00 0.00 91 1014.0
20260904094610 70 190 0.0 1.7 0.00 0.00 0.00 91 1014.0
20260904094604 70 190 0.0 1.7 0.00 0.00 0.00 91 1012.4
20260904094059 70 190 0.9 1.7 0.00 0.00 0.00 91 1014.0
20260904093601 71 190 0.0 1.7 0.00 0.00 0.00 90 1014.0
20260904093112 71 190 0.0 0.0 0.00 0.00 0.00 90 1014.0
20260904093106 71 0 0.0 0.0 0.00 0.00 0.00 90 1012.2
20260904092558 71 190 0.0 0.0 0.00 0.00 0.00 90 1014.0
20260904092058 71 190 0.0 0.0 0.00 0.00 0.00 90 1014.0
20260904091605 71 0 0.0 0.0 0.00 0.00 0.00 90 1012.2
20260904091558 71 190 0.0 0.0 0.00 0.00 0.00 90 1014.0
20260904091059 71 190 0.0 0.0 0.00 0.00 0.00 90 1014.0
20260904090557 71 190 0.0 0.0 0.00 0.00 0.00 90 1013.9
20260904090132 71 0 0.0 0.0 0.00 0.00 0.00 89 1012.0
20260904090058 71 190 0.0 0.0 0.00 0.00 0.00 90 1013.7
20260904085557 71 190 0.0 1.7 0.00 0.00 0.00 90 1013.6
20260904085055 71 190 0.0 1.7 0.00 0.00 0.00 90 1013.7
20260904084609 71 190 0.0 1.7 0.00 0.00 0.00 88 1012.0
20260904084556 71 190 0.0 1.7 0.00 0.00 0.00 89 1013.8
20260904084053 72 190 0.9 1.7 0.00 0.00 0.00 88 1013.7
20260904083551 72 190 0.0 1.7 0.00 0.00 0.00 87 1013.7
20260904083109 73 0 0.0 0.0 0.00 0.00 0.00 86 1011.9
20260904083051 73 190 0.0 0.0 0.00 0.00 0.00 86 1013.7
20260904082552 73 190 0.0 0.0 0.00 0.00 0.00 85 1013.7
20260904082050 72 190 0.0 0.0 0.00 0.00 0.00 87 1013.7
20260904081600 72 0 0.0 0.0 0.00 0.00 0.00 87 1012.1
20260904081550 72 190 0.0 0.0 0.00 0.00 0.00 87 1013.9
20260904081049 72 190 0.0 0.0 0.00 0.00 0.00 88 1013.9
20260904080549 72 190 0.0 0.0 0.00 0.00 0.00 89 1013.9
20260904080107 73 0 0.0 0.0 0.00 0.00 0.00 88 1012.1
20260904080049 72 190 0.0 0.0 0.00 0.00 0.00 88 1014.0
20260904075547 72 190 0.0 0.0 0.00 0.00 0.00 88 1014.0
20260904075047 72 190 0.0 0.0 0.00 0.00 0.00 88 1014.0
20260904074610 73 0 0.0 0.0 0.00 0.00 0.00 88 1012.1
20260904074548 72 190 0.0 0.0 0.00 0.00 0.00 88 1013.9
20260904074051 72 190 0.0 0.0 0.00 0.00 0.00 88 1014.0
20260904073547 72 190 0.0 0.0 0.00 0.00 0.00 88 1014.0
20260904073101 72 0 0.0 0.0 0.00 0.00 0.00 88 1012.2
20260904073055 72 190 0.0 0.0 0.00 0.00 0.00 89 1014.1
20260904072547 72 190 0.0 0.0 0.00 0.00 0.00 89 1014.0
20260904072046 72 190 0.0 0.0 0.00 0.00 0.00 88 1014.1
20260904071626 72 0 0.0 1.7 0.00 0.00 0.00 87 1012.3
20260904071546 72 190 0.0 1.7 0.00 0.00 0.00 88 1014.1
20260904071045 73 190 0.0 1.7 0.00 0.00 0.00 87 1014.2
20260904070545 73 190 0.0 0.9 0.00 0.00 0.00 87 1014.2
20260904070116 73 0 0.0 0.0 0.00 0.00 0.00 86 1012.3
20260904070045 73 190 0.0 0.0 0.00 0.00 0.00 87 1014.1
20260904065544 73 190 0.0 0.0 0.00 0.00 0.00 87 1014.1
20260904065043 73 190 0.0 0.0 0.00 0.00 0.00 86 1014.0
20260904064609 73 0 0.0 0.0 0.00 0.00 0.00 86 1012.1
20260904064543 73 190 0.0 0.0 0.00 0.00 0.00 86 1013.9
20260904064042 73 190 0.0 0.0 0.00 0.00 0.00 86 1014.0
20260904063542 73 190 0.0 0.0 0.00 0.00 0.00 87 1014.1
20260904063101 73 0 0.0 0.0 0.00 0.00 0.00 87 1012.4
20260904063045 73 190 0.0 0.0 0.00 0.00 0.00 87 1014.2
20260904062541 73 190 0.0 0.0 0.00 0.00 0.00 87 1014.0
20260904062040 73 190 0.0 0.0 0.00 0.00 0.00 87 1014.1
20260904061608 73 0 0.0 0.0 0.00 0.00 0.00 86 1012.4
20260904061540 73 190 0.0 0.0 0.00 0.00 0.00 87 1014.2
20260904061039 73 190 0.0 0.0 0.00 0.00 0.00 86 1014.1
20260904060538 73 190 0.0 0.0 0.00 0.00 0.00 86 1014.3
20260904060114 73 0 0.0 0.0 0.00 0.00 0.00 85 1012.5
20260904060037 73 190 0.0 0.0 0.00 0.00 0.00 86 1014.3
20260904055536 73 190 0.0 0.0 0.00 0.00 0.00 86 1014.1
20260904055036 73 190 0.0 0.0 0.00 0.00 0.00 85 1014.0
20260904054609 74 0 0.0 0.0 0.00 0.00 0.00 85 1012.1
20260904054536 73 190 0.0 0.0 0.00 0.00 0.00 85 1013.9
20260904054037 74 190 0.0 0.0 0.00 0.00 0.00 84 1013.9
20260904053535 74 190 0.0 0.0 0.00 0.00 0.00 84 1013.9
20260904053118 74 0 0.0 0.0 0.00 0.00 0.00 84 1012.1
20260904053036 74 190 0.0 0.0 0.00 0.00 0.00 84 1013.9
20260904052536 74 190 0.0 0.0 0.00 0.00 0.00 83 1013.9
20260904052038 74 190 0.0 0.0 0.00 0.00 0.00 83 1013.9
20260904051603 74 0 0.0 0.0 0.00 0.00 0.00 83 1012.1
20260904051536 74 190 0.0 0.0 0.00 0.00 0.00 83 1014.0
20260904051035 74 190 0.0 0.0 0.00 0.00 0.00 83 1014.0
20260904050535 75 190 0.0 0.0 0.00 0.00 0.00 82 1014.0
20260904050108 75 0 0.0 0.0 0.00 0.00 0.00 81 1012.2
20260904050035 75 190 0.0 0.0 0.00 0.00 0.00 82 1014.0
20260904045535 75 190 0.0 0.0 0.00 0.00 0.00 81 1014.0
20260904045035 75 190 0.0 0.0 0.00 0.00 0.00 81 1013.9
20260904044614 75 0 0.0 0.0 0.00 0.00 0.00 80 1012.0
20260904044536 75 190 0.0 0.0 0.00 0.00 0.00 80 1013.9
20260904044035 75 190 0.0 0.0 0.00 0.00 0.00 80 1013.9
20260904043534 75 190 0.0 0.0 0.00 0.00 0.00 80 1014.0
20260904043104 75 0 0.0 0.0 0.00 0.00 0.00 79 1012.2
20260904043034 75 190 0.0 0.0 0.00 0.00 0.00 79 1014.0
20260904042534 76 190 0.0 0.0 0.00 0.00 0.00 79 1013.9
20260904042035 76 190 0.0 0.0 0.00 0.00 0.00 79 1013.9
20260904041618 76 0 0.0 0.0 0.00 0.00 0.00 78 1011.8
20260904041537 76 190 0.0 0.0 0.00 0.00 0.00 79 1013.7
20260904041033 76 190 0.0 0.0 0.00 0.00 0.00 78 1013.8
20260904040536 76 190 0.0 0.0 0.00 0.00 0.00 78 1013.7
20260904040104 77 0 0.0 0.0 0.00 0.00 0.00 76 1011.7
20260904040037 77 190 0.0 0.0 0.00 0.00 0.00 76 1013.6
20260904035533 77 190 0.0 0.0 0.00 0.00 0.00 76 1013.6
20260904035033 77 190 0.0 0.0 0.00 0.00 0.00 75 1013.5
20260904034559 78 0 0.0 0.0 0.00 0.00 0.00 75 1011.6
20260904034533 78 190 0.0 0.0 0.00 0.00 0.00 75 1013.4
20260904034033 78 190 0.0 0.0 0.00 0.00 0.00 75 1013.4
20260904033533 78 190 0.0 0.0 0.00 0.00 0.00 74 1013.4
20260904033105 78 0 0.0 0.0 0.00 0.00 0.00 72 1011.5
20260904033039 78 190 0.0 0.0 0.00 0.00 0.00 72 1013.4
20260904032532 78 190 0.0 0.9 0.00 0.00 0.00 72 1013.4
20260904032032 78 190 0.0 0.9 0.00 0.00 0.00 72 1013.3
20260904031616 79 0 0.0 0.0 0.00 0.00 0.00 72 1011.4
20260904031533 78 190 0.0 0.0 0.00 0.00 0.00 72 1013.3
20260904031034 78 190 0.0 0.0 0.00 0.00 0.00 72 1013.2
20260904030532 78 190 0.0 0.0 0.00 0.00 0.00 71 1013.1
20260904030103 79 0 0.0 0.0 0.00 0.00 0.00 71 1011.1
20260904030032 79 190 0.0 0.0 0.00 0.00 0.00 71 1013.2
20260904025531 79 190 0.0 0.0 0.00 0.00 0.00 70 1013.0
20260904025031 79 190 0.0 0.0 0.00 0.00 0.00 71 1012.9
20260904024605 79 0 0.0 0.0 0.00 0.00 0.00 69 1010.9
20260904024531 79 190 0.0 0.0 0.00 0.00 0.00 70 1012.8
20260904024030 79 190 0.0 0.0 0.00 0.00 0.00 70 1012.9
20260904023533 79 190 0.0 0.0 0.00 0.00 0.00 70 1013.0
20260904023104 79 0 0.0 0.0 0.00 0.00 0.00 69 1011.0
20260904023031 79 190 0.0 0.0 0.00 0.00 0.00 69 1012.9
20260904022531 80 190 0.0 0.0 0.00 0.00 0.00 68 1012.8
20260904022033 80 190 0.0 0.0 0.00 0.00 0.00 66 1012.9
20260904021608 81 0 0.0 0.0 0.00 0.00 0.00 65 1010.7
20260904021532 81 190 0.0 0.0 0.00 0.00 0.00 65 1012.8
20260904021030 81 190 0.0 0.0 0.00 0.00 0.00 64 1012.7
20260904020530 81 190 0.0 0.0 0.00 0.00 0.00 64 1012.6
20260904020107 81 0 0.0 0.9 0.00 0.00 0.00 63 1010.6
20260904020030 81 190 0.0 0.9 0.00 0.00 0.00 64 1012.5
20260904015529 81 190 0.0 0.9 0.00 0.00 0.00 63 1012.3
20260904015029 81 190 0.0 0.9 0.00 0.00 0.00 63 1012.2
20260904014615 82 0 0.0 0.0 0.00 0.00 0.00 61 1010.2
20260904014536 82 190 0.0 0.0 0.00 0.00 0.00 61 1012.1
20260904014032 82 190 0.0 0.0 0.00 0.00 0.00 60 1012.0
20260904013533 82 190 0.0 0.0 0.00 0.00 0.00 59 1011.9
20260904013101 83 0 0.0 1.7 0.00 0.00 0.00 58 1009.9
20260904013033 83 190 0.0 1.7 0.00 0.00 0.00 58 1011.8
20260904012529 83 190 0.0 1.7 0.00 0.00 0.00 57 1011.8
20260904012029 83 190 0.0 0.0 0.00 0.00 0.00 56 1011.7
20260904011610 84 190 0.0 3.5 0.00 0.00 0.00 55 1009.7
20260904011528 84 190 0.0 3.5 0.00 0.00 0.00 55 1011.6
20260904011028 84 190 0.0 4.3 0.00 0.00 0.00 55 1011.4
20260904010528 84 190 1.7 5.2 0.00 0.00 0.00 54 1011.3
20260904010107 84 190 2.6 5.2 0.00 0.00 0.00 53 1009.2
20260904010029 84 190 2.6 5.2 0.00 0.00 0.00 53 1011.1
20260904005528 84 190 1.7 4.3 0.00 0.00 0.00 54 1010.9
20260904005027 85 190 0.0 1.7 0.00 0.00 0.00 54 1010.8
20260904004603 85 190 0.0 2.6 0.00 0.00 0.00 53 1009.0
20260904004528 85 190 0.0 1.7 0.00 0.00 0.00 54 1010.8
20260904004028 85 190 0.0 2.6 0.00 0.00 0.00 53 1010.6
20260904003527 86 190 0.0 3.5 0.00 0.00 0.00 53 1010.6
20260904003102 86 0 1.7 3.5 0.00 0.00 0.00 52 1008.8
20260904003027 86 190 0.9 3.5 0.00 0.00 0.00 52 1010.6
20260904002527 87 190 0.0 6.1 0.00 0.00 0.00 52 1010.6
20260904002027 87 190 1.7 6.1 0.00 0.00 0.00 51 1010.6
20260904001607 88 190 1.7 7.0 0.00 0.00 0.00 50 1008.8
20260904001527 88 190 0.9 5.2 0.00 0.00 0.00 50 1010.5
20260904001027 88 190 1.7 7.0 0.00 0.00 0.00 49 1010.6
20260904000527 89 190 4.3 7.0 0.00 0.00 0.00 48 1010.5
20260904000110 90 190 3.5 7.0 0.00 0.00 0.00 47 1008.6
20260904000027 90 190 2.6 7.0 0.00 0.00 0.00 47 1010.4
20260903235525 90 190 2.6 7.0 0.00 0.00 0.00 47 1010.5
20260903235026 90 190 4.3 7.0 0.00 0.00 0.00 46 1010.5
20260903234622 91 190 1.7 7.0 0.00 0.00 0.00 45 1008.6
20260903234526 91 190 1.7 7.0 0.00 0.00 0.00 45 1010.5
20260903234026 91 190 2.6 5.2 0.00 0.00 0.00 46 1010.3
20260903233528 91 190 0.0 6.1 0.00 0.00 0.00 43 1010.2
20260903233103 91 190 2.6 8.7 0.00 0.00 0.00 41 1008.3
20260903233025 91 190 2.6 7.0 0.00 0.00 0.00 42 1010.2
20260903232525 91 190 1.7 8.7 0.00 0.00 0.00 43 1010.1
20260903232025 91 190 4.3 8.7 0.00 0.00 0.00 42 1010.1
20260903231617 92 190 2.6 9.6 0.00 0.00 0.00 41 1008.2
20260903231524 92 190 1.7 9.6 0.00 0.00 0.00 41 1010.2
20260903231024 92 190 3.5 9.6 0.00 0.00 0.00 41 1010.1
20260903230523 92 190 2.6 7.0 0.00 0.00 0.00 41 1010.1
20260903230106 93 190 0.9 7.8 0.00 0.00 0.00 39 1008.1
20260903230042 93 190 0.9 7.8 0.00 0.00 0.00 40 1010.1
20260903225524 93 190 3.5 7.8 0.00 0.00 0.00 39 1010.1
20260903225021 93 190 0.9 3.5 0.00 0.00 0.00 38 1010.1
20260903224601 93 190 0.0 7.0 0.00 0.00 0.00 38 1008.0
20260903224527 93 190 0.0 7.0 0.00 0.00 0.00 38 1010.0
20260903224020 94 190 2.6 7.0 0.00 0.00 0.00 37 1010.0
20260903223519 93 190 0.0 2.6 0.00 0.00 0.00 39 1009.9
20260903223112 93 0 0.0 3.5 0.00 0.00 0.00 38 1008.0
20260903223019 93 190 0.0 3.5 0.00 0.00 0.00 38 1009.9
20260903222517 93 190 0.9 3.5 0.00 0.00 0.00 38 1010.0
20260903222017 93 190 0.0 5.2 0.00 0.00 0.00 37 1010.1
20260903221604 93 190 1.7 5.2 0.00 0.00 0.00 37 1008.2
20260903221516 92 190 0.9 5.2 0.00 0.00 0.00 38 1010.2
20260903221019 92 190 1.7 4.3 0.00 0.00 0.00 37 1010.2
20260903220519 93 190 0.9 4.3 0.00 0.00 0.00 38 1010.3
20260903220105 93 190 2.6 5.2 0.00 0.00 0.00 38 1008.4
20260903220014 92 190 1.7 4.3 0.00 0.00 0.00 38 1010.5
20260903215513 92 190 0.9 5.2 0.00 0.00 0.00 38 1010.4
20260903215013 92 190 1.7 7.0 0.00 0.00 0.00 39 1010.5
20260903214605 92 190 3.5 7.0 0.00 0.00 0.00 38 1008.5
20260903214525 92 190 2.6 7.0 0.00 0.00 0.00 39 1010.6
20260903214011 92 190 0.9 5.2 0.00 0.00 0.00 39 1010.6
20260903213512 92 190 2.6 5.2 0.00 0.00 0.00 39 1010.6
20260903213107 92 190 0.0 4.3 0.00 0.00 0.00 40 1008.7
20260903213018 92 190 0.0 4.3 0.00 0.00 0.00 41 1010.7
20260903212509 92 190 0.9 4.3 0.00 0.00 0.00 40 1010.9
20260903212010 91 190 0.0 6.1 0.00 0.00 0.00 42 1011.0
20260903211604 91 190 2.6 6.1 0.00 0.00 0.00 39 1009.0
20260903211507 91 190 2.6 6.1 0.00 0.00 0.00 40 1011.1
20260903211006 92 190 0.9 4.3 0.00 0.00 0.00 40 1011.1
20260903210505 91 190 2.6 5.2 0.00 0.00 0.00 41 1011.3
20260903210105 92 190 0.9 7.0 0.00 0.00 0.00 41 1009.1
20260903210005 91 190 0.0 7.0 0.00 0.00 0.00 42 1011.3
20260903205504 92 190 2.6 7.0 0.00 0.00 0.00 42 1011.5
20260903205003 92 190 1.7 6.1 0.00 0.00 0.00 42 1011.5
20260903204604 91 0 0.0 4.3 0.00 0.00 0.00 41 1009.5
20260903204502 91 190 0.0 4.3 0.00 0.00 0.00 43 1011.7
20260903204001 91 190 1.7 4.3 0.00 0.00 0.00 42 1011.8
20260903203559 91 190 0.0 3.5 0.00 0.00 0.00 42 1011.9
20260903203105 91 0 0.0 7.0 0.00 0.00 0.00 44 1009.8
20260903203059 91 190 0.0 5.2 0.00 0.00 0.00 44 1012.1
20260903202558 90 190 0.9 7.0 0.00 0.00 0.00 43 1012.3
20260903202057 91 190 4.3 7.0 0.00 0.00 0.00 44 1012.4
20260903201612 91 190 0.9 7.8 0.00 0.00 0.00 44 1010.1
20260903201557 91 190 0.9 7.8 0.00 0.00 0.00 44 1012.5
20260903201055 91 190 3.5 7.8 0.00 0.00 0.00 44 1012.6
20260903200554 90 190 1.7 5.2 0.00 0.00 0.00 45 1012.7
20260903200104 90 190 3.5 5.2 0.00 0.00 0.00 45 1010.4
20260903200055 90 190 1.7 5.2 0.00 0.00 0.00 45 1012.9
20260903195555 90 190 2.6 5.2 0.00 0.00 0.00 44 1013.0
20260903195051 91 190 0.9 3.5 0.00 0.00 0.00 43 1013.1
20260903194601 90 0 0.0 7.0 0.00 0.00 0.00 43 1010.7
20260903194550 90 190 0.0 6.1 0.00 0.00 0.00 43 1013.2
20260903194050 90 190 2.6 7.0 0.00 0.00 0.00 42 1013.3
20260903193548 89 190 4.3 7.0 0.00 0.00 0.00 43 1013.4
20260903193107 89 190 3.5 7.0 0.00 0.00 0.00 45 1011.0
20260903193047 89 190 3.5 7.0 0.00 0.00 0.00 44 1013.6
20260903192550 89 190 0.9 7.0 0.00 0.00 0.00 46 1013.7
20260903192046 89 190 2.6 7.8 0.00 0.00 0.00 46 1013.9
20260903191602 88 190 3.5 7.0 0.00 0.00 0.00 50 1011.4
20260903191545 88 190 3.5 7.8 0.00 0.00 0.00 50 1013.9
20260903191045 88 190 1.7 5.2 0.00 0.00 0.00 51 1014.1
20260903190543 88 190 2.6 8.7 0.00 0.00 0.00 54 1014.2
20260903190106 88 190 3.5 7.0 0.00 0.00 0.00 53 1011.8
20260903190045 88 190 3.5 8.7 0.00 0.00 0.00 53 1014.4
20260903185541 89 190 1.7 6.1 0.00 0.00 0.00 53 1014.5
20260903185040 90 190 1.7 4.3 0.00 0.00 0.00 51 1014.6
20260903184601 90 190 0.9 4.3 0.00 0.00 0.00 42 1012.1
20260903184539 90 190 0.9 4.3 0.00 0.00 0.00 43 1014.6
20260903184038 89 190 0.9 4.3 0.00 0.00 0.00 45 1014.7
20260903183536 88 190 0.0 4.3 0.00 0.00 0.00 48 1014.7
20260903183102 88 190 0.9 3.5 0.00 0.00 0.00 48 1012.2
20260903183035 88 190 0.0 3.5 0.00 0.00 0.00 49 1014.8
20260903182535 88 190 0.0 7.0 0.00 0.00 0.00 47 1015.0
20260903182033 87 190 1.7 7.0 0.00 0.00 0.00 47 1015.2
20260903181600 87 190 1.7 6.1 0.00 0.00 0.00 50 1012.6
20260903181530 87 190 2.6 6.1 0.00 0.00 0.00 50 1015.3
20260903181029 87 190 1.7 6.1 0.00 0.00 0.00 49 1015.4
20260903180528 86 190 2.6 6.1 0.00 0.00 0.00 50 1015.5
20260903180124 86 0 3.5 6.1 0.00 0.00 0.00 50 1013.0
20260903180048 86 190 1.7 6.1 0.00 0.00 0.00 51 1015.5
20260903175525 86 190 1.7 7.0 0.00 0.00 0.00 55 1015.6
20260903175024 86 190 0.9 7.0 0.00 0.00 0.00 57 1015.7
20260903174601 86 190 2.6 7.0 0.00 0.00 0.00 54 1013.3
20260903174524 86 190 3.5 7.0 0.00 0.00 0.00 55 1015.7
20260903174026 86 190 0.9 7.0 0.00 0.00 0.00 56 1015.9
20260903173521 86 190 1.7 7.0 0.00 0.00 0.00 56 1016.0
20260903173102 85 190 4.3 7.0 0.00 0.00 0.00 56 1013.7
20260903173023 85 190 3.5 7.0 0.00 0.00 0.00 58 1016.2